[[{"header":{"parameterUnit":"m.s-1","parameterCategory":1,"la1":30.2991,"la2":30.254,"lo1":-89.0895,"lo2":-89.0444,"dy":0.0017,"dx":0.0017,"nx":28,"ny":28,"refTime":"2023-04-05T15:00:00:Z","depth":0,"parameterNumber":2,"parameterNumberName":"U-component_of_WINDS"},"data":[0,0,0,0,0,0,0,0,0,0,0,0,0,0,0,0,0,0,0,0,0,0,0,0,0,0,0,0,0,0,0,0,0,0,0,0,0,0,0,0,0,0,0,0,0,0,0,0,0,0,0,0,0,0,0,0,0,0,-3.1542,-3.1541,0,-3.1512,-3.1512,-3.1512,-3.1401,-3.1398,-3.1396,-3.1393,-3.1365,-3.1366,-3.1368,0,0,0,0,0,0,0,0,0,0,0,0,0,-3.1503,-3.1505,-3.1542,-3.1541,-3.1541,-3.1512,-3.1512,-3.1512,-3.1401,-3.1398,-3.1395,-3.1392,-3.1364,-3.1366,-3.1368,0,0,0,0,0,0,0,0,0,0,0,0,0,-3.1502,-3.1505,-3.1542,-3.1482,-3.1477,-3.1513,-3.1512,-3.1512,-3.1402,-3.1398,-3.1394,-3.1391,-3.1363,-3.1366,-3.1368,-3.1459,0,0,-3.1376,-3.1377,0,0,0,0,0,0,0,0,-3.1502,-3.1503,-3.1491,-3.1486,-3.148,-3.1456,-3.1488,-3.1494,-3.1403,-3.143,-3.1393,-3.1389,-3.1398,-3.1398,-3.14,-3.1458,-3.1457,-3.1376,-3.1377,-3.1378,-3.1379,0,0,0,0,0,0,0,-3.1502,-3.1504,-3.153,-3.1491,-3.1485,-3.1458,-3.1453,-3.1489,-3.1436,-3.1428,-3.1419,-3.1418,-3.1394,-3.1398,-3.1399,-3.1456,-3.1376,-3.1378,-3.1379,-3.138,-3.1588,-3.1592,0,0,0,0,0,0,-3.1511,-3.1505,-3.1531,-3.1529,-3.1482,-3.1462,-3.1457,-3.1468,-3.1435,-3.1427,-3.1421,-3.1412,-3.1396,-3.1396,-3.1398,-3.1502,-3.1378,-3.138,-3.1382,-3.1584,-3.1589,-3.1593,0,0,0,0,0,0,-3.151,-3.1514,-3.1532,-3.1515,-3.1515,-3.1466,-3.148,-3.1469,-3.1473,-3.143,-3.142,-3.1434,-3.1393,-3.1394,-3.1445,-3.1499,-3.1382,-3.1384,-3.1579,-3.1585,-3.1591,-3.1711,0,0,0,0,0,0,-3.151,-3.1515,-3.1548,-3.1516,-3.1516,-3.158,-3.1483,-3.1471,-3.1477,-3.1466,-3.144,-3.1432,-3.139,-3.1442,-3.1447,-3.15,-3.1386,-3.1574,-3.1582,-3.1589,-3.1702,-3.1721,-3.1737,0,0,0,0,0,-3.1509,-3.1583,-3.155,-3.1554,-3.1557,-3.1583,-3.1583,-3.1532,-3.1482,-3.1516,-3.1489,-3.1433,-3.1493,-3.1448,-3.1453,-3.1508,-3.157,-3.1579,-3.1588,-3.1694,-3.1717,-3.1736,0,0,0,0,0,0,-3.1622,-3.1578,-3.1541,-3.1607,-3.16,-3.1564,-3.1604,-3.1558,-3.1565,-3.1554,-3.1492,-3.1487,-3.1547,-3.1532,-3.1483,-3.1595,-3.1522,-3.1533,-3.1601,-3.1622,-3.1639,-3.1641,-3.1388,0,0,0,0,0,-3.1655,-3.168,-3.164,-3.1702,-3.17,-3.1654,-3.1663,-3.1625,-3.1615,-3.1611,-3.1587,-3.158,-3.1597,-3.1609,-3.1622,-3.1701,-3.1693,-3.1741,-3.1758,-3.1772,-3.1782,-3.1822,-3.1843,-3.1623,-3.1623,-3.1623,0,0,-3.1723,-3.1702,-3.1721,-3.1725,-3.1714,-3.1741,-3.1651,-3.1683,-3.1703,-3.1616,-3.1661,-3.1645,-3.1632,-3.1697,-3.1725,-3.1687,-3.1841,-3.1784,-3.1796,-3.1797,-3.1834,-3.1854,-3.1873,-3.1629,-3.1628,-3.1627,0,0,-3.186,-3.1847,-3.1897,-3.1889,-3.1875,-3.1844,-3.1856,-3.1828,-3.1813,-3.1858,-3.1794,-3.1817,-3.1847,-3.1841,-3.1842,-3.198,-3.1929,-3.1986,-3.2075,-3.2115,-3.2132,-3.2147,-3.2196,-3.2214,-3.1996,-3.1996,-3.1996,0,-3.1946,-3.1983,-3.1929,-3.1965,-3.1969,-3.1893,-3.1943,-3.1938,-3.193,-3.1934,-3.1893,-3.193,-3.1916,-3.1978,-3.2012,-3.2016,-3.2028,-3.1987,-3.2134,-3.2149,-3.2162,-3.2207,-3.2226,-3.2003,-3.2002,-3.2002,-3.2001,0,-3.2089,-3.2117,-3.2159,-3.2152,-3.2161,-3.2205,-3.2158,-3.2174,-3.2136,-3.211,-3.2158,-3.2139,-3.2147,-3.216,-3.2124,-3.2218,-3.2195,-3.2145,-3.2071,-3.2191,-3.2232,-3.2249,-3.2013,-3.2011,-3.2009,-3.2007,0,0,-3.2294,-3.2259,-3.2275,-3.2271,-3.2251,-3.2271,-3.2312,-3.232,-3.2334,-3.2332,-3.2364,-3.2393,-3.2347,-3.2349,-3.2311,-3.2347,-3.2457,-3.2293,-3.2291,-3.2323,-3.2559,-3.2595,-3.2616,-3.2424,-3.2427,-3.243,-3.2559,0,-3.2423,-3.249,-3.2444,-3.2518,-3.2543,-3.2472,-3.2508,-3.25,-3.2477,-3.2495,-3.247,-3.2491,-3.2429,-3.243,-3.2462,-3.2436,-3.2503,-3.2427,-3.2453,-3.2455,-3.2456,-3.2637,-3.2675,-3.2798,-3.2575,-3.2578,-3.258,0,-3.2581,-3.2586,-3.2663,-3.2639,-3.2647,-3.268,-3.2684,-3.2703,-3.2693,-3.2674,-3.2677,-3.2631,-3.267,-3.2599,-3.2652,-3.2602,-3.261,-3.26,-3.2604,-3.2602,-3.2523,-3.264,-3.2836,-3.2854,-3.2605,-3.2603,-3.2601,0,-3.2721,-3.2747,-3.2796,-3.2796,-3.2769,-3.2794,-3.2784,-3.277,-3.2778,-3.2783,-3.2788,-3.2797,-3.2802,-3.2811,-3.2769,-3.2721,-3.2828,-3.2753,-3.2813,-3.2814,-3.2836,-3.2835,-3.3035,-3.2846,-3.2845,-3.2845,-3.2844,0,-3.2869,-3.2918,-3.2859,-3.2889,-3.2943,-3.2891,-3.2946,-3.2929,-3.2918,-3.2944,-3.2884,-3.291,-3.2854,-3.2875,-3.2843,-3.2892,-3.2895,-3.2881,-3.2871,-3.2885,-3.2886,-3.2888,-3.2877,-3.285,-3.2849,-3.2848,-3.2847,0,-3.3032,-3.2995,-3.3044,-3.3015,-3.3009,-3.305,-3.3026,-3.3053,-3.3028,-3.3062,-3.3067,-3.3027,-3.3048,-3.3008,-3.3024,-3.3003,-3.3071,-3.3049,-3.3074,-3.3066,-3.3128,-3.3122,-3.3334,-3.3359,-3.3156,-3.3158,-3.316,0,-3.3128,-3.3164,-3.314,-3.3153,-3.3147,-3.3169,-3.3177,-3.3129,-3.314,-3.3133,-3.3161,-3.3178,-3.3187,-3.3225,-3.3198,-3.321,-3.3187,-3.3261,-3.3188,-3.3201,-3.3186,-3.3184,-3.3187,-3.3275,-3.3277,-3.3279,-3.3281,0,-3.33,-3.328,-3.3294,-3.3303,-3.3315,-3.3319,-3.3319,-3.3334,-3.3282,-3.3298,-3.3319,-3.3327,-3.3344,-3.3361,-3.3368,-3.3358,-3.3311,-3.3305,-3.3319,-3.3332,-3.3344,-3.3337,-3.3112,-3.3299,-3.3297,-3.3296,-3.3295,-3.3294,-3.3431,-3.346,-3.3448,-3.3467,-3.3462,-3.3464,-3.3488,-3.3466,-3.3483,-3.3492,-3.3464,-3.3492,-3.3482,-3.3486,-3.3482,-3.3503,-3.347,-3.3491,-3.3496,-3.3502,-3.3511,-3.3343,-3.3505,-3.3504,-3.3504,-3.3503,-3.3503,0,-3.3599,-3.3589,-3.3606,-3.3608,-3.3623,-3.3579,-3.3578,-3.3593,-3.3618,-3.3614,-3.3625,-3.365,-3.3667,-3.3643,-3.3655,-3.3678,-3.3657,-3.3682,-3.3679,-3.3677,-3.354,-3.3526,-3.3699,-3.3699,-3.3699,-3.3699,-3.3699,-3.3699,-3.3688,-3.3735,-3.3714,-3.3759,-3.3748,-3.3775,-3.3778,-3.378,-3.3776,-3.3807,-3.382,-3.3804,-3.3792,-3.3804,-3.3818,-3.381,-3.3817,-3.385,-3.3835,-3.3706,-3.3687,-3.3669,-3.3655,-3.3853,-3.3853,-3.397,-3.3971,-3.3972]},{"header":{"parameterUnit":"m.s-1","parameterCategory":1,"la1":30.2991,"la2":30.254,"lo1":-89.0895,"lo2":-89.0444,"dy":0.0017,"dx":0.0017,"nx":28,"ny":28,"refTime":"2023-04-05T15:00:00:Z","depth":0,"parameterNumber":3,"parameterNumberName":"V-component_of_WINDS"},"data":[0,0,0,0,0,0,0,0,0,0,0,0,0,0,0,0,0,0,0,0,0,0,0,0,0,0,0,0,0,0,0,0,0,0,0,0,0,0,0,0,0,0,0,0,0,0,0,0,0,0,0,0,0,0,0,0,0,0,0.017,0.017,0,0.0159,0.0158,0.0158,0.0144,0.0144,0.0144,0.0144,0.0131,0.0131,0.013,0,0,0,0,0,0,0,0,0,0,0,0,0,0.0179,0.0179,0.017,0.017,0.0169,0.0159,0.0158,0.0158,0.0144,0.0144,0.0144,0.0144,0.0131,0.0131,0.013,0,0,0,0,0,0,0,0,0,0,0,0,0,0.0172,0.0179,0.017,0.0161,0.016,0.0159,0.0158,0.0158,0.0144,0.0144,0.0144,0.0144,0.0131,0.0131,0.013,0.0135,0,0,0.013,0.013,0,0,0,0,0,0,0,0,0.0172,0.0172,0.0163,0.0162,0.0161,0.0153,0.0157,0.0151,0.0145,0.015,0.0144,0.0143,0.0138,0.0137,0.0136,0.0135,0.0134,0.013,0.013,0.0129,0.0129,0,0,0,0,0,0,0,0.0173,0.0172,0.0165,0.0163,0.0161,0.0158,0.0157,0.0156,0.0146,0.015,0.0149,0.0148,0.0138,0.0136,0.0135,0.0134,0.013,0.0129,0.0129,0.0129,0.0139,0.0139,0,0,0,0,0,0,0.0175,0.0173,0.0166,0.0165,0.0166,0.0158,0.0157,0.0156,0.0146,0.0144,0.0148,0.0147,0.0137,0.0136,0.0135,0.0141,0.0129,0.0129,0.0129,0.0138,0.0139,0.0139,0,0,0,0,0,0,0.0175,0.0174,0.0166,0.0169,0.0167,0.0158,0.0157,0.0155,0.0154,0.0145,0.0143,0.0148,0.0136,0.0135,0.0136,0.0141,0.0129,0.0129,0.0138,0.0138,0.0139,0.0154,0,0,0,0,0,0,0.0175,0.0175,0.0176,0.0169,0.0167,0.0167,0.0157,0.0156,0.0154,0.0153,0.0145,0.0143,0.0136,0.0136,0.0136,0.014,0.0129,0.0137,0.0138,0.0139,0.0153,0.0155,0.0156,0,0,0,0,0,0.0176,0.018,0.0176,0.0176,0.0169,0.0168,0.0167,0.0159,0.0154,0.0156,0.0151,0.0143,0.014,0.0137,0.0136,0.014,0.0137,0.0138,0.0139,0.0152,0.0154,0.0156,0,0,0,0,0,0,0.0187,0.0179,0.0175,0.0177,0.0173,0.0165,0.0167,0.0162,0.0159,0.0158,0.0148,0.0146,0.0148,0.0144,0.014,0.0146,0.0138,0.0138,0.0148,0.015,0.0152,0.0153,0.0129,0,0,0,0,0,0.019,0.019,0.0182,0.0185,0.0183,0.0176,0.0175,0.017,0.0165,0.0163,0.0158,0.0154,0.0152,0.0151,0.0149,0.0152,0.0151,0.0155,0.0157,0.0159,0.0159,0.0162,0.0164,0.0142,0.0142,0.0142,0,0,0.0196,0.0191,0.0191,0.0187,0.0184,0.0184,0.0174,0.0174,0.0174,0.0163,0.0164,0.016,0.0155,0.0157,0.0158,0.0154,0.0165,0.016,0.0161,0.0161,0.0163,0.0165,0.0167,0.0143,0.0142,0.0142,0,0,0.0206,0.0202,0.0205,0.0202,0.0198,0.0193,0.0194,0.0187,0.0184,0.0185,0.0177,0.0177,0.0174,0.0171,0.0169,0.0181,0.0175,0.0181,0.019,0.0193,0.0195,0.0197,0.0202,0.0204,0.0182,0.0182,0.0182,0,0.0213,0.0213,0.0206,0.0208,0.0206,0.0198,0.02,0.0198,0.0193,0.0192,0.0188,0.0185,0.0181,0.0184,0.0187,0.0185,0.0186,0.0181,0.0196,0.0197,0.0198,0.0203,0.0205,0.0183,0.0183,0.0182,0.0182,0,0.0223,0.0223,0.0226,0.0223,0.0222,0.0223,0.0217,0.0217,0.0213,0.0209,0.021,0.0205,0.0203,0.0203,0.0198,0.0205,0.0203,0.0197,0.0189,0.0201,0.0206,0.0207,0.0184,0.0183,0.0183,0.0183,0,0,0.0238,0.0233,0.0234,0.0233,0.0229,0.0229,0.0231,0.0229,0.023,0.0227,0.0229,0.0228,0.0223,0.0221,0.0216,0.0219,0.023,0.0213,0.0213,0.0217,0.0239,0.0244,0.0246,0.0226,0.0226,0.0227,0.024,0,0.0248,0.0252,0.0247,0.0251,0.0252,0.0245,0.0247,0.0245,0.0241,0.0242,0.0238,0.0238,0.0231,0.023,0.0232,0.0228,0.0234,0.0227,0.0228,0.0228,0.0229,0.0248,0.0252,0.0265,0.0241,0.0242,0.0242,0,0.0259,0.0259,0.0264,0.0261,0.0261,0.0263,0.0262,0.0263,0.026,0.0258,0.0257,0.0252,0.0254,0.0247,0.025,0.0245,0.0245,0.0244,0.0244,0.0244,0.0235,0.0248,0.0269,0.0271,0.0244,0.0244,0.0244,0,0.0271,0.0271,0.0275,0.0274,0.0271,0.0273,0.0271,0.0269,0.0269,0.0268,0.0268,0.0268,0.0267,0.0267,0.0262,0.0257,0.0266,0.0258,0.0265,0.0265,0.0266,0.0266,0.0287,0.0266,0.0266,0.0266,0.0266,0,0.0282,0.0286,0.0281,0.0283,0.0287,0.0282,0.0286,0.0284,0.0282,0.0284,0.0277,0.0279,0.0272,0.0274,0.027,0.0274,0.0273,0.0272,0.027,0.0272,0.0273,0.0272,0.0271,0.0267,0.0267,0.0267,0.0267,0,0.0295,0.0292,0.0296,0.0293,0.0292,0.0296,0.0293,0.0295,0.0293,0.0295,0.0296,0.0291,0.0292,0.0288,0.0288,0.0285,0.0291,0.0289,0.0292,0.0292,0.0298,0.0298,0.032,0.0323,0.03,0.03,0.03,0,0.0303,0.0306,0.0304,0.0305,0.0304,0.0306,0.0307,0.0302,0.0303,0.0302,0.0305,0.0306,0.0307,0.0309,0.0306,0.0307,0.0304,0.0312,0.0304,0.0306,0.0305,0.0305,0.0305,0.0313,0.0313,0.0314,0.0314,0,0.0316,0.0315,0.0316,0.0318,0.0319,0.032,0.032,0.0321,0.0317,0.0318,0.032,0.0321,0.0322,0.0324,0.0324,0.0323,0.0318,0.0317,0.0318,0.032,0.0322,0.0322,0.0297,0.0316,0.0316,0.0315,0.0315,0.0315,0.0327,0.033,0.033,0.0332,0.0332,0.0333,0.0335,0.0334,0.0336,0.0337,0.0334,0.0337,0.0337,0.0337,0.0336,0.0339,0.0335,0.0337,0.0338,0.0338,0.034,0.0322,0.0339,0.0339,0.0338,0.0338,0.0338,0,0.0341,0.0341,0.0343,0.0344,0.0347,0.0343,0.0344,0.0346,0.0349,0.0349,0.035,0.0354,0.0356,0.0353,0.0355,0.0358,0.0356,0.0358,0.0358,0.0358,0.0342,0.0341,0.036,0.036,0.036,0.036,0.036,0.036,0.0348,0.0353,0.0352,0.0358,0.0358,0.0362,0.0362,0.0364,0.0364,0.0368,0.037,0.0369,0.0369,0.0371,0.0373,0.0372,0.0373,0.0377,0.0376,0.0361,0.0359,0.0357,0.0356,0.0377,0.0377,0.0391,0.0391,0.0391]}]]